Tracking 19846 objects as of 18-Sep-2019
HD Live streaming from Space Station
objects crossing your sky now

FENGYUN 1C DEB

Track FENGYUN 1C DEB now!
10-day predictions


NORAD ID: 41007
Int'l Code: 1999-025EXM
Perigee: 845.7 km
Apogee: 1,119.5 km
Inclination: 99.9 °
Period: 104.6 minutes
Semi major axis: 7353 km
RCS: Unknown
Launch date: May 10, 1999
Source: People's Republic of China (PRC)
Launch site: Taiyaun Space Center, China (TSC)

Note: This is SATELLITE DEBRIS
aabbcc
Your satellite tracking list
Your tracking list is empty




NASA's NSSDC Master Catalog

Two Line Element Set (TLE):
1 41007U 99025EXM 19259.47458125  .00000442  00000-0  43902-3 0  9990
2 41007  99.9450 138.3229 0186125 187.9395 171.8796 13.76745977259699
Source of the keplerian elements: AFSPC